Location: Newark
(7.0858°N, 171.3717°E)
Time: 14:52:11
(UTC+00:00)

Courier 1B Rocket - Pass Details

Date: 30 November 2020
Orbit: 920 x 1202 km, 28.2° (Epoch: 20 January)

Event Time Altitude Azimuth Distance (km) Brightness Sun altitude
Rises 11:20:59 0° 202° (SSW) 3,733 - -69.0°
Reaches altitude 10° 11:25:41 10° 173° (S) 2,854 - -69.8°
Maximum altitude 11:28:19 12° 151° (SSE) 2,729 - -70.2°
Drops below altitude 10° 11:31:00 10° 128° (SE) 2,935 - -70.6°
Sets 11:35:59 0° 100° (E) 3,964 - -71.4°
